Погода в Маратоне

США     24°42′42″N   81°05′26″W
темп.,
°C
ветер,
м/с
пор.,
м/с
влажн.,
%
обл.,
%
осадки,
мм/ч
давл.,
гПа
погр.,
м
20 апреля, вт
вт2023:00+27юз68765 2.5 1015640
02:00+27юз99785 2.9 1014780
05:00+27ююз787733 0.0 1014771
08:00+27ююз887767 0.0 1015865
11:00+27ююз997515 0.0 1017930
14:00+27ююз71071100 0.0 1016938
17:00+28юз3668100 0.0 1014500
20:00+28ююз3569100 0.0 1015534
21 апреля, ср
ср2123:00+27ю5874100 0.0 1016651
02:00+27ююз697672 0.1 1015980
05:00+26з567825 0.8 1015491
08:00+27з6675100 1.4 1017623
11:00+27зюз5573100 0.0 1018782
14:00+27зюз5574100 0.1 1017841
17:00+26зсз5678100 0.1 1016770
20:00+26ссз668098 0.1 1016603
22 апреля, чт
чт2223:00+25ссз778081 0.0 1018612
02:00+25сз557818 0.0 1017674
05:00+25с55701 0.0 1016709
08:00+24ссв55590 0.0 1018540
11:00+24ссв33530 0.0 1019439
14:00+25ссз11500 0.0 1018281
17:00+26зюз21500 0.0 1016365
20:00+26с34550 0.0 1017574
23 апреля, пт
пт2323:00+26св66734 0.0 1019931
02:00+26всв877522 0.1 1018917
05:00+26всв8873100 0.3 10171080
08:00+26в987659 0.4 1018996
11:00+26в987621 0.3 1019987
14:00+26в88758 0.4 1018971
17:00+26в787449 0.1 1016979
20:00+26в887494 0.3 10171066
24 апреля, сб
сб2423:00+26в997479 0.1 10181125
02:00+26вюв9975100 0.3 1016881
05:00+26юв997797 0.3 10151004
08:00+26юв101073100 0.6 10151203
11:00+27юв9107597 0.1 10171075
14:00+27юв8869100 0.1 10161110
17:00+27юв887698 0.0 1014824
20:00+27вюв7776100 0.0 1014625